�N����,����,����,����,����,�C��,���x,�~����,�S�V����,�ő�u�ԕ���,,,,,
,,,,,,,,,����,����,����,�N��,,
yyyy/mm/dd,hh:mm:ss,(16),16����,m/s,��,%,mm,KW/�u,(16),16����,m/s,Time,,
2016/11/1,1:00:00,3,���k��,1.2,-2.7,85.6,0,0,16,�k,3.3,0,,
2016/11/1,2:00:00,13,���k��,1.8,-3.2,87.4,0,0,13,���k��,2.5,56,,
2016/11/1,3:00:00,13,���k��,0.5,-2.4,92.8,0,0,13,���k��,2.6,31,,
2016/11/1,4:00:00,13,���k��,2.1,-1.7,93.2,0,0,12,��,3.1,41,,
2016/11/1,5:00:00,12,��,1.8,-1.6,90.2,0,0,13,���k��,2.6,36,,
2016/11/1,6:00:00,16,�É�,0,-1.4,91.4,0,0,13,���k��,2.2,0,,
2016/11/1,7:00:00,13,���k��,1,-0.6,92.2,0,0.02,11,���쐼,1.9,49,,
2016/11/1,8:00:00,7,��쓌,0.9,0.6,89.3,0,0.08,16,�k,2.1,26,,
2016/11/1,9:00:00,13,���k��,1.4,1.8,84.1,0,0.1,3,���k��,2.4,58,,
2016/11/1,10:00:00,13,���k��,1.4,2.7,70.4,0,0.17,13,���k��,2.8,1,,
2016/11/1,11:00:00,14,�k��,1.4,3.2,63.9,0,0.15,14,�k��,3.2,42,,
2016/11/1,12:00:00,14,�k��,1.4,3.3,61.4,0,0.17,13,���k��,2.8,26,,
2016/11/1,13:00:00,15,�k�k��,0.5,4,60.6,0,0.18,14,�k��,2.4,28,,
2016/11/1,14:00:00,14,�k��,1.5,4,55.9,0,0.14,13,���k��,2.5,57,,
2016/11/1,15:00:00,2,�k��,0.3,4.7,56.6,0,0.17,13,���k��,7.1,22,,
2016/11/1,16:00:00,11,���쐼,0.9,2.5,59.3,0,0.11,12,��,2,5,,
2016/11/1,17:00:00,15,�k�k��,1.8,2.3,68.6,0,0.01,16,�k,4.8,44,,
2016/11/1,18:00:00,12,��,1,-1.1,76.6,0,0,14,�k��,2.7,8,,
2016/11/1,19:00:00,12,��,2.1,-1.1,79.6,0,0,11,���쐼,2.7,55,,
2016/11/1,20:00:00,12,��,2.5,-2.6,85,0,0,12,��,3,54,,
2016/11/1,21:00:00,13,���k��,2.5,-2,88.2,0,0,12,��,3.4,59,,
2016/11/1,22:00:00,13,���k��,2.5,-1.8,88,0,0,12,��,3.7,36,,
2016/11/1,23:00:00,13,���k��,2.1,-2.1,80.1,0,0,14,�k��,4.4,35,,
2016/11/1,0:00:00,11,���쐼,1.4,-3.4,81.1,0,0,11,���쐼,2.5,15,,
2016/11/2,1:00:00,15,�k�k��,0.9,-6,81.2,0,0,1,�k�k��,2.6,48,,
2016/11/2,2:00:00,12,��,1.8,-5.6,86.7,0,0,11,���쐼,2.7,16,,
2016/11/2,3:00:00,12,��,1.6,-7.2,85.9,0,0,13,���k��,2.5,48,,
2016/11/2,4:00:00,13,���k��,1.6,-7,89.6,0,0,12,��,2.4,11,,
2016/11/2,5:00:00,12,��,1.4,-8.1,87.4,0,0,13,���k��,2.5,51,,
2016/11/2,6:00:00,12,��,2.9,-7,91.7,0,0.01,13,���k��,3.5,56,,
2016/11/2,7:00:00,13,���k��,2.5,-4.1,90.5,0,0.08,13,���k��,3.3,26,,
2016/11/2,8:00:00,12,��,1.9,-1.1,69.8,0,0.26,13,���k��,3.4,36,,
2016/11/2,9:00:00,13,���k��,1.5,2.8,56.9,0,0.44,13,���k��,2.7,46,,
2016/11/2,10:00:00,14,�k��,0.8,4.9,29.6,0,0.56,13,���k��,2.4,43,,
2016/11/2,11:00:00,15,�k�k��,1.7,5.8,28.2,0,0.57,15,�k�k��,3.2,59,,
2016/11/2,12:00:00,2,�k��,1.6,7.3,28.2,0,0.64,1,�k�k��,4.1,35,,
2016/11/2,13:00:00,6,�쓌,2.5,7.2,34.2,0,0.59,5,���쓌,4.9,40,,
2016/11/2,14:00:00,6,�쓌,2.5,5.9,39.4,0,0.48,5,���쓌,5.9,36,,
2016/11/2,15:00:00,5,���쓌,2.7,5.4,44.2,0,0.32,5,���쓌,5.4,7,,
2016/11/2,16:00:00,5,���쓌,1.4,3.4,49.5,0,0.13,5,���쓌,3.9,0,,
2016/11/2,17:00:00,15,�k�k��,0.5,-1.8,62.1,0,0.01,5,���쓌,1.8,13,,
2016/11/2,18:00:00,12,��,1.9,-3.5,68.2,0,0,12,��,2.5,54,,
2016/11/2,19:00:00,13,���k��,0.7,-3.8,81.2,0,0,12,��,2.8,39,,
2016/11/2,20:00:00,12,��,2.2,-2.1,91.1,0,0,12,��,2.7,23,,
2016/11/2,21:00:00,12,��,1.9,-1.6,88.6,0,0,12,��,2.5,46,,
2016/11/2,22:00:00,12,��,1.6,-1.4,86.9,0,0,12,��,3.3,34,,
2016/11/2,23:00:00,13,���k��,1.2,-2.6,83.4,0,0,11,���쐼,3.3,14,,
2016/11/2,0:00:00,13,���k��,1.8,-1.9,86.6,0,0,13,���k��,2.7,43,,
2016/11/3,1:00:00,13,���k��,2.4,-0.7,83.9,0,0,13,���k��,4.5,32,,
2016/11/3,2:00:00,13,���k��,1.5,-0.6,80.9,0,0,12,��,4.3,7,,
2016/11/3,3:00:00,15,�k�k��,0.9,-0.4,78,0,0,14,�k��,4.7,19,,
2016/11/3,4:00:00,14,�k��,1.8,0.3,77,0,0,14,�k��,3.2,13,,
2016/11/3,5:00:00,14,�k��,2.5,-0.3,77.6,0,0,14,�k��,4,49,,
2016/11/3,6:00:00,14,�k��,2,0.2,75.7,0,0,15,�k�k��,4.9,19,,
2016/11/3,7:00:00,14,�k��,3,0.7,79.3,0,0.01,14,�k��,5.1,59,,
2016/11/3,8:00:00,13,���k��,4.8,0.6,83.8,0.5,0.01,13,���k��,7.7,55,,
2016/11/3,9:00:00,13,���k��,3.6,0.6,93,2,0.03,13,���k��,8,37,,
2016/11/3,10:00:00,14,�k��,2.8,1.1,94,0.5,0.13,14,�k��,7,37,,
2016/11/3,11:00:00,14,�k��,1.5,1.1,92,1,0.09,15,�k�k��,5.2,13,,
2016/11/3,12:00:00,13,���k��,4.3,0.8,93.9,3.5,0.05,13,���k��,6.8,58,,
2016/11/3,13:00:00,14,�k��,4.9,0.9,95.4,3.5,0.04,14,�k��,9.7,49,,
2016/11/3,14:00:00,13,���k��,5.3,1.1,95.7,4,0.02,13,���k��,10,53,,
2016/11/3,15:00:00,14,�k��,5.8,1.6,95.1,1.5,0.03,14,�k��,11.1,59,,
2016/11/3,16:00:00,14,�k��,5.1,1.9,94.4,0,0.05,13,���k��,10.4,40,,
2016/11/3,17:00:00,13,���k��,4.8,1.6,93.4,0.5,0.01,13,���k��,9.5,51,,
2016/11/3,18:00:00,14,�k��,2.5,1.4,92.8,0,0,1,�k�k��,8,5,,
2016/11/3,19:00:00,13,���k��,2.5,0.9,91.5,0,0,1,�k�k��,5.1,9,,
2016/11/3,20:00:00,15,�k�k��,2.1,1.3,91.9,0,0,12,��,4.2,46,,
2016/11/3,21:00:00,14,�k��,3.6,1.4,90.1,0,0,14,�k��,5.5,57,,
2016/11/3,22:00:00,12,��,4,-0.3,88.4,0,0,12,��,5.7,42,,
2016/11/3,23:00:00,12,��,3.5,-0.5,87,0,0,11,���쐼,5.3,18,,
2016/11/3,0:00:00,12,��,3.9,-1.2,88.7,0,0,13,���k��,5.2,51,,
2016/11/4,1:00:00,15,�k�k��,0.6,-1.6,88.8,0,0,12,��,5.8,12,,
2016/11/4,2:00:00,12,��,2.7,-2.7,90,0,0,13,���k��,4,47,,
2016/11/4,3:00:00,13,���k��,3.2,-2.7,91.9,0,0,13,���k��,4.7,53,,
2016/11/4,4:00:00,14,�k��,3.4,-2,92.7,0,0,13,���k��,5.5,53,,
2016/11/4,5:00:00,13,���k��,3.6,-2.3,91.2,0,0,13,���k��,5.3,59,,
2016/11/4,6:00:00,13,���k��,2.6,-3.1,89.4,0,0.01,13,���k��,5.9,6,,
2016/11/4,7:00:00,13,���k��,2.3,-2.3,90.7,0,0.05,12,��,4.1,2,,
2016/11/4,8:00:00,14,�k��,1.8,0.6,84,0,0.17,12,��,3.7,14,,
2016/11/4,9:00:00,14,�k��,2.1,3.7,61.1,0,0.39,14,�k��,3.4,59,,
2016/11/4,10:00:00,12,��,3.6,4.8,41.2,0,0.52,12,��,5,56,,
2016/11/4,11:00:00,13,���k��,4.2,5.1,40.1,0,0.57,12,��,6.8,46,,
2016/11/4,12:00:00,13,���k��,3.1,5.6,40.4,0,0.58,13,���k��,8.8,4,,
2016/11/4,13:00:00,13,���k��,4.1,5.7,42.2,0,0.53,13,���k��,7.3,28,,
2016/11/4,14:00:00,13,���k��,4.5,4.9,34.7,0,0.43,12,��,8.8,42,,
2016/11/4,15:00:00,15,�k�k��,1.9,4,37.2,0,0.26,12,��,8,0,,
2016/11/4,16:00:00,10,�쐼,0.7,-0.3,43.2,0,0.08,14,�k��,4.6,26,,
2016/11/4,17:00:00,3,���k��,0.5,-0.7,59.1,0,0.01,11,���쐼,2.1,26,,
2016/11/4,18:00:00,16,�É�,0,-2.9,69,0,0,4,��,1.4,29,,
2016/11/4,19:00:00,13,���k��,0.7,-5.5,76.4,0,0,14,�k��,4.1,51,,
2016/11/4,20:00:00,16,�k,0.7,-4.3,84.6,0,0,13,���k��,3.1,7,,
2016/11/4,21:00:00,13,���k��,1.8,-5.5,84.6,0,0,13,���k��,2.9,47,,
2016/11/4,22:00:00,13,���k��,1.4,-5.3,87.4,0,0,13,���k��,2.5,47,,
2016/11/4,23:00:00,13,���k��,2.5,-4.1,87.1,0,0,13,���k��,4.1,46,,
2016/11/4,0:00:00,12,��,2.2,-5.5,84.3,0,0,12,��,3.5,28,,
2016/11/5,1:00:00,13,���k��,1.8,-6.2,86.9,0,0,12,��,3.5,48,,
2016/11/5,2:00:00,12,��,2.3,-5.5,89.9,0,0,12,��,7.2,42,,
2016/11/5,3:00:00,12,��,2.5,-5,89.9,0,0,12,��,3.4,57,,
2016/11/5,4:00:00,13,���k��,2.2,-4,89.8,0,0,12,��,3.5,7,,
2016/11/5,5:00:00,13,���k��,2.5,-2.4,89.7,0,0,14,�k��,3.6,59,,
2016/11/5,6:00:00,12,��,1.9,-2,84.1,0,0,14,�k��,3.9,1,,
2016/11/5,7:00:00,14,�k��,1.4,-0.2,80.9,0,0.01,14,�k��,4.5,35,,
2016/11/5,8:00:00,14,�k��,1.6,0.5,86.5,0,0.03,14,�k��,5.1,22,,
2016/11/5,9:00:00,15,�k�k��,1.2,0.4,92.1,0,0.04,15,�k�k��,4.5,20,,
2016/11/5,10:00:00,14,�k��,2.2,0.3,93.4,1,0.04,14,�k��,3.7,59,,
2016/11/5,11:00:00,14,�k��,2.3,0.3,93.4,1,0.05,13,���k��,3.7,52,,
2016/11/5,12:00:00,14,�k��,2.1,0.6,93.8,0,0.03,11,���쐼,4,24,,
2016/11/5,13:00:00,14,�k��,2,0.9,94.8,1,0.04,14,�k��,3.8,24,,
2016/11/5,14:00:00,15,�k�k��,1.5,0.9,94.9,0.5,0.02,14,�k��,3.6,39,,
2016/11/5,15:00:00,14,�k��,1.7,0.9,95.2,0.5,0.01,13,���k��,3.5,12,,
2016/11/5,16:00:00,13,���k��,3,0.9,95.3,1.5,0.01,1,�k�k��,5.8,48,,
2016/11/5,17:00:00,13,���k��,3.1,0.9,95.5,2,0,14,�k��,5.6,28,,
2016/11/5,18:00:00,13,���k��,2.3,0.9,95.9,3,0,14,�k��,4.5,2,,
2016/11/5,19:00:00,15,�k�k��,0.5,0.8,96,0,0,15,�k�k��,3.2,27,,
2016/11/5,20:00:00,12,��,0.7,0.8,96,1.5,0,13,���k��,2.9,20,,
2016/11/5,21:00:00,8,��,0.9,0.8,96.1,2,0,13,���k��,2.9,30,,
2016/11/5,22:00:00,9,��쐼,0.4,0.9,96.2,1.5,0,4,��,2.2,48,,
2016/11/5,23:00:00,14,�k��,4.1,1.9,96,1.5,0,14,�k��,14,41,,
2016/11/5,0:00:00,16,�k,1.7,1.8,95,0.5,0,14,�k��,7.6,7,,
2016/11/6,1:00:00,12,��,2.5,2.1,94.5,0,0,5,���쓌,3.8,33,,
2016/11/6,2:00:00,12,��,2.2,1.2,91.3,0,0,13,���k��,4.4,19,,
2016/11/6,3:00:00,12,��,0.5,0.2,91.8,0,0,12,��,3.2,13,,
2016/11/6,4:00:00,12,��,0.7,-0.6,91.6,0,0,11,���쐼,2.9,42,,
2016/11/6,5:00:00,13,���k��,1.6,1,91.7,0,0,12,��,5.1,43,,
2016/11/6,6:00:00,1,�k�k��,2.8,-0.8,88.6,0,0,3,���k��,5.9,48,,
2016/11/6,7:00:00,2,�k��,2.4,0.7,91.7,0,0.05,3,���k��,6.2,20,,
2016/11/6,8:00:00,16,�k,4.1,1.5,73.3,0,0.17,15,�k�k��,10.6,31,,
2016/11/6,9:00:00,16,�k,2.7,2.5,58.8,0,0.32,5,���쓌,9.8,28,,
2016/11/6,10:00:00,3,���k��,1.3,4.8,47.5,0,0.56,2,�k��,6.8,19,,
2016/11/6,11:00:00,14,�k��,4.3,4,42.9,0,0.47,14,�k��,7.4,53,,
2016/11/6,12:00:00,14,�k��,2.8,5,45.7,0,0.42,1,�k�k��,6.3,2,,
2016/11/6,13:00:00,15,�k�k��,3.4,4.2,39.8,0,0.6,13,���k��,6.2,1,,
2016/11/6,14:00:00,14,�k��,3,4.8,42,0,0.48,13,���k��,6.6,23,,
2016/11/6,15:00:00,14,�k��,2.5,3.9,47.2,0,0.29,11,���쐼,7.4,47,,
2016/11/6,16:00:00,14,�k��,3,1.8,50.9,0,0.11,14,�k��,8.2,18,,
2016/11/6,17:00:00,16,�k,1,-0.1,56.2,0,0.01,14,�k��,5.6,1,,
2016/11/6,18:00:00,1,�k�k��,1.2,-0.4,58.2,0,0,1,�k�k��,3.9,45,,
2016/11/6,19:00:00,12,��,0.3,-5.1,69.6,0,0,5,���쓌,1.9,6,,
2016/11/6,20:00:00,12,��,1.6,-3.9,78.5,0,0,12,��,2.2,48,,
2016/11/6,21:00:00,13,���k��,1.2,-6.5,83.9,0,0,13,���k��,2.1,49,,
2016/11/6,22:00:00,12,��,1.1,-7.6,87.4,0,0,12,��,1.7,56,,
2016/11/6,23:00:00,13,���k��,1,-6.9,90.4,0,0,13,���k��,2.5,55,,
2016/11/6,0:00:00,12,��,1.1,-6.9,92.3,0,0,11,���쐼,2.3,57,,
2016/11/7,1:00:00,13,���k��,2.5,-5,90.7,0,0,12,��,4.1,32,,
2016/11/7,2:00:00,13,���k��,3.1,-4.6,89.6,0,0,13,���k��,4.5,55,,
2016/11/7,3:00:00,13,���k��,2.7,-6,86,0,0,14,�k��,4.4,48,,
2016/11/7,4:00:00,10,�쐼,0.3,-6.2,85.4,0,0,10,�쐼,7.5,55,,
2016/11/7,5:00:00,13,���k��,2.6,-5.7,82.9,0,0,11,���쐼,7.1,0,,
2016/11/7,6:00:00,13,���k��,2.2,-7.7,79.9,0,0,13,���k��,3.8,57,,
2016/11/7,7:00:00,13,���k��,3.7,-3.1,82.8,0,0.06,13,���k��,6.1,57,,
2016/11/7,8:00:00,14,�k��,2.5,-0.1,63.6,0,0.24,4,��,5.3,16,,
2016/11/7,9:00:00,14,�k��,3,2,49.9,0,0.41,14,�k��,7.9,17,,
2016/11/7,10:00:00,16,�k,3.2,3.4,43.5,0,0.53,15,�k�k��,7.9,28,,
2016/11/7,11:00:00,14,�k��,2.8,4,38.8,0,0.58,16,�k,6.5,14,,
2016/11/7,12:00:00,3,���k��,2.4,4.8,34.8,0,0.59,4,��,5.9,55,,
2016/11/7,13:00:00,4,��,4,4.3,42.1,0,0.55,4,��,6,54,,
2016/11/7,14:00:00,5,���쓌,2.1,4,42.9,0,0.43,6,�쓌,5.7,7,,
2016/11/7,15:00:00,7,��쓌,1.2,3.3,41.6,0,0.27,5,���쓌,4.1,4,,
2016/11/7,16:00:00,16,�É�,0.1,1.1,51.3,0,0.09,4,��,2.4,4,,
2016/11/7,17:00:00,12,��,0.8,-1.9,65.4,0,0.01,12,��,1.5,59,,
2016/11/7,18:00:00,12,��,1.9,-1.5,80.8,0,0,12,��,2.7,56,,
2016/11/7,19:00:00,13,���k��,2.3,-0.7,80.6,0,0,16,�k,3.4,56,,
2016/11/7,20:00:00,13,���k��,0.5,-1.7,74.4,0,0,13,���k��,3.3,4,,
2016/11/7,21:00:00,13,���k��,1.7,-2.9,79.2,0,0,12,��,2.5,36,,
2016/11/7,22:00:00,12,��,1.7,-2.4,80.6,0,0,13,���k��,4.2,9,,
2016/11/7,23:00:00,14,�k��,1.8,-1.7,77.6,0,0,14,�k��,3.3,50,,
2016/11/7,0:00:00,13,���k��,2.1,-2.8,78.2,0,0,13,���k��,3.1,14,,
2016/11/8,1:00:00,13,���k��,2.8,-2.8,82.7,0,0,14,�k��,4.8,13,,
2016/11/8,2:00:00,14,�k��,2.5,-2.4,81.6,0,0,13,���k��,5.9,29,,
2016/11/8,3:00:00,14,�k��,2.5,-1.6,79,0,0,14,�k��,4.9,6,,
2016/11/8,4:00:00,14,�k��,2.5,-1,75.7,0,0,9,��쐼,5.4,2,,
2016/11/8,5:00:00,13,���k��,2.8,-1.1,78,0,0,4,��,5.1,2,,
2016/11/8,6:00:00,14,�k��,2.2,-1.3,84.1,0,0,13,���k��,5.8,46,,
2016/11/8,7:00:00,14,�k��,2.8,-1,89.9,0,0.01,14,�k��,5.1,51,,
2016/11/8,8:00:00,14,�k��,2.7,-0.6,91.7,0,0.03,14,�k��,4.7,39,,
2016/11/8,9:00:00,14,�k��,3.3,-0.2,92.9,0.5,0.05,14,�k��,5.8,46,,
2016/11/8,10:00:00,16,�k,0.8,0.7,94,1,0.07,13,���k��,5.2,4,,
2016/11/8,11:00:00,13,���k��,2.5,1.4,95.3,0,0.11,13,���k��,3.8,59,,
2016/11/8,12:00:00,14,�k��,1.9,1.6,94.5,0.5,0.09,13,���k��,3.8,0,,
2016/11/8,13:00:00,13,���k��,1.3,1.9,94.2,1,0.05,14,�k��,3.3,13,,
2016/11/8,14:00:00,8,��,2.9,7.5,98.1,6,0.02,7,��쓌,8.3,58,,
2016/11/8,15:00:00,8,��,2.8,8.3,98.7,5,0.01,9,��쐼,11.1,50,,
2016/11/8,16:00:00,13,���k��,3,2,93.2,3.5,0.01,14,�k��,8.3,32,,
2016/11/8,17:00:00,13,���k��,3.6,2.1,95.4,3.5,0,3,���k��,7.4,39,,
2016/11/8,18:00:00,13,���k��,3.4,2.1,96,1,0,8,��,6.5,57,,
2016/11/8,19:00:00,12,��,3.4,1.8,96.1,0,0,12,��,6.3,44,,
2016/11/8,20:00:00,10,�쐼,4.1,3.9,96.3,0,0,10,�쐼,6.9,57,,
2016/11/8,21:00:00,10,�쐼,6.3,5.9,96.5,0,0,11,���쐼,9.6,59,,
2016/11/8,22:00:00,11,���쐼,7.1,7.6,65.8,0.5,0,11,���쐼,13.8,28,,
2016/11/8,23:00:00,11,���쐼,4.3,7.1,56.1,0,0,11,���쐼,12.6,19,,
2016/11/8,0:00:00,3,���k��,2.4,3.9,64.9,0,0,12,��,7.4,10,,
2016/11/9,1:00:00,14,�k��,1.4,5.5,53.1,0,0,14,�k��,4.5,28,,
2016/11/9,2:00:00,12,��,1.5,4.2,56.3,0,0,13,���k��,5.7,10,,
2016/11/9,3:00:00,12,��,3.8,3.2,54,0,0,11,���쐼,8.4,47,,
2016/11/9,4:00:00,13,���k��,1.5,-0.2,68.2,0,0,12,��,3.3,50,,
2016/11/9,5:00:00,7,��쓌,0.4,-1.1,75.8,0,0,12,��,3.3,7,,
2016/11/9,6:00:00,12,��,4.3,3.1,68.2,0,0,12,��,8.2,51,,
2016/11/9,7:00:00,11,���쐼,4.6,3.4,55.9,0,0.04,12,��,9.4,57,,
2016/11/9,8:00:00,11,���쐼,6.3,3.6,52.9,0,0.21,11,���쐼,11.3,49,,
2016/11/9,9:00:00,12,��,6,4.3,42.1,0,0.41,12,��,13.4,20,,
2016/11/9,10:00:00,12,��,6.8,4.7,40.1,0,0.55,12,��,12,42,,
2016/11/9,11:00:00,14,�k��,4.1,5.5,41.6,0,0.67,12,��,13.5,1,,
2016/11/9,12:00:00,13,���k��,3.1,4.6,46.1,0,0.38,14,�k��,7.8,1,,
2016/11/9,13:00:00,12,��,4.3,3.4,43.5,0,0.22,13,���k��,8.8,32,,
2016/11/9,14:00:00,15,�k�k��,2.5,2.2,50.4,0,0.34,14,�k��,10.8,23,,
2016/11/9,15:00:00,14,�k��,2.9,2.6,44.2,0,0.31,14,�k��,5.5,44,,
2016/11/9,16:00:00,13,���k��,2.5,-0.1,54.9,0,0.06,12,��,5.2,5,,
2016/11/9,17:00:00,11,���쐼,2.3,-1.2,63,0,0.01,11,���쐼,3.9,52,,
2016/11/9,18:00:00,11,���쐼,2.4,-1.7,63.3,0,0,11,���쐼,3.5,44,,
2016/11/9,19:00:00,12,��,1.8,-3.2,67.1,0,0,11,���쐼,4.7,37,,
2016/11/9,20:00:00,4,��,1,-3.6,64.5,0,0,11,���쐼,5.5,8,,
2016/11/9,21:00:00,12,��,0.8,-6.6,72.5,0,0,12,��,1.8,7,,
2016/11/9,22:00:00,13,���k��,1.4,-7.4,77.3,0,0,12,��,2,59,,
2016/11/9,23:00:00,12,��,0.7,-4,73.1,0,0,11,���쐼,3.4,47,,
2016/11/9,0:00:00,16,�k,0.6,-5.1,69.6,0,0,11,���쐼,3.3,18,,
2016/11/10,1:00:00,11,���쐼,2.3,-2.9,70.9,0,0,11,���쐼,3.9,54,,
2016/11/10,2:00:00,10,�쐼,1.5,-6,65.9,0,0,11,���쐼,3.9,5,,
2016/11/10,3:00:00,10,�쐼,2.2,-4,66.7,0,0,10,�쐼,4.5,17,,
2016/11/10,4:00:00,12,��,0.8,-7.1,66,0,0,11,���쐼,3.7,2,,
2016/11/10,5:00:00,11,���쐼,4.4,-2.4,79.4,0,0,11,���쐼,5.8,53,,
2016/11/10,6:00:00,11,���쐼,1,-5.3,64.2,0,0,12,��,5.7,20,,
2016/11/10,7:00:00,12,��,1.7,-4.5,76.5,0,0.06,11,���쐼,2.7,46,,
2016/11/10,8:00:00,11,���쐼,3.5,1.5,48.4,0,0.24,12,��,6.4,57,,
2016/11/10,9:00:00,12,��,3.9,3.1,39.7,0,0.41,11,���쐼,8.5,15,,
2016/11/10,10:00:00,12,��,3.6,4,34.7,0,0.54,12,��,7.5,5,,
2016/11/10,11:00:00,13,���k��,2.7,4.7,33.8,0,0.62,11,���쐼,6.9,18,,
2016/11/10,12:00:00,14,�k��,2.8,4.4,33.3,0,0.63,13,���k��,7,1,,
2016/11/10,13:00:00,1,�k�k��,2.1,5.3,30.5,0,0.56,1,�k�k��,5.8,14,,
2016/11/10,14:00:00,5,���쓌,1.8,5.1,28.4,0,0.46,4,��,3.4,53,,
2016/11/10,15:00:00,2,�k��,1.4,3.7,34,0,0.28,14,�k��,5,24,,
2016/11/10,16:00:00,15,�k�k��,1.7,1,42.7,0,0.08,15,�k�k��,3.9,20,,
2016/11/10,17:00:00,16,�k,1.3,-0.4,51.3,0,0.01,1,�k�k��,3.3,45,,
2016/11/10,18:00:00,11,���쐼,0.8,-2.1,61.7,0,0,1,�k�k��,2,18,,
2016/11/10,19:00:00,12,��,1.8,-4.9,66.6,0,0,12,��,2.8,32,,
2016/11/10,20:00:00,16,�É�,0,-2.8,74.5,0,0,12,��,3.2,26,,
2016/11/10,21:00:00,16,�É�,0,-5,74.1,0,0,16,�k,2.2,4,,
2016/11/10,22:00:00,12,��,2.7,-5.2,80.6,0,0,12,��,3.5,53,,
2016/11/10,23:00:00,13,���k��,2.7,-4,80.7,0,0,13,���k��,3.7,58,,
2016/11/10,0:00:00,13,���k��,2.9,-3.9,79.1,0,0,13,���k��,4.4,45,,
2016/11/11,1:00:00,12,��,3.1,-3.2,76.1,0,0,12,��,5.3,54,,
2016/11/11,2:00:00,12,��,3.7,-3,73,0,0,12,��,4.8,51,,
2016/11/11,3:00:00,16,�k,1.4,-3.4,72.8,0,0,12,��,4.1,0,,
2016/11/11,4:00:00,13,���k��,1.9,-5.1,74.6,0,0,13,���k��,2.7,53,,
2016/11/11,5:00:00,16,�É�,0,-7.3,77.3,0,0,13,���k��,2.9,4,,
2016/11/11,6:00:00,14,�k��,2.4,-5,82.8,0,0,14,�k��,4.4,21,,
2016/11/11,7:00:00,12,��,2.5,-5.2,79.2,0,0.05,14,�k��,4.1,17,,
2016/11/11,8:00:00,13,���k��,3.2,-2.2,70.7,0,0.12,13,���k��,5.1,58,,
2016/11/11,9:00:00,13,���k��,3,-0.5,66,0,0.19,16,�k,5.3,4,,
2016/11/11,10:00:00,14,�k��,2.3,0.8,56.6,0,0.16,13,���k��,4.6,17,,
2016/11/11,11:00:00,14,�k��,2.5,1.4,52.9,0,0.19,14,�k��,5,41,,
2016/11/11,12:00:00,15,�k�k��,1.7,3.6,45.7,0,0.32,14,�k��,4.1,25,,
2016/11/11,13:00:00,2,�k��,0.9,4.4,47.5,0,0.39,2,�k��,3,26,,
2016/11/11,14:00:00,2,�k��,1.7,3.4,53.6,0,0.2,2,�k��,2.7,59,,
2016/11/11,15:00:00,2,�k��,1.6,2.8,58.9,0,0.14,3,���k��,2.8,27,,
2016/11/11,16:00:00,14,�k��,1.1,2.1,61.5,0,0.05,1,�k�k��,2.4,14,,
2016/11/11,17:00:00,14,�k��,1.5,1.5,66,0,0,14,�k��,2.8,59,,
2016/11/11,18:00:00,14,�k��,2.4,0.9,65.5,0,0,7,��쓌,4.1,44,,
2016/11/11,19:00:00,14,�k��,2.2,0.9,65.8,0,0,14,�k��,3.7,41,,
2016/11/11,20:00:00,14,�k��,2.6,0.8,68.1,0,0,14,�k��,4.4,56,,
2016/11/11,21:00:00,13,���k��,3.6,-0.2,75.2,0,0,13,���k��,5.7,48,,
2016/11/11,22:00:00,14,�k��,3.3,-1.1,91.1,0,0,13,���k��,5.7,2,,
2016/11/11,23:00:00,13,���k��,2.5,-0.9,94.6,0,0,12,��,6,15,,
2016/11/11,0:00:00,14,�k��,2.7,-0.7,95.6,0,0,14,�k��,5.8,50,,
2016/11/12,1:00:00,13,���k��,2.4,-0.7,95.8,0.5,0,14,�k��,5.3,5,,
2016/11/12,2:00:00,14,�k��,2.5,-0.6,96.1,0,0,14,�k��,5.1,34,,
2016/11/12,3:00:00,14,�k��,3,-0.4,96.4,0,0,13,���k��,5.4,12,,
2016/11/12,4:00:00,14,�k��,2.6,-0.3,96.6,0,0,14,�k��,5.2,18,,
2016/11/12,5:00:00,14,�k��,3.3,-0.1,96.4,0.5,0,13,���k��,5.6,39,,
2016/11/12,6:00:00,13,���k��,3.2,-0.4,95.4,1,0,4,��,6.3,42,,
2016/11/12,7:00:00,14,�k��,3.2,0.3,95.9,1.5,0.01,14,�k��,6,12,,
2016/11/12,8:00:00,14,�k��,2.9,0.7,95.8,0.5,0.04,14,�k��,5.7,31,,
2016/11/12,9:00:00,13,���k��,4.5,0.8,93.2,1,0.09,13,���k��,7.9,54,,
2016/11/12,10:00:00,13,���k��,3.7,1.5,91.2,2.5,0.16,14,�k��,7.1,42,,
2016/11/12,11:00:00,14,�k��,4.4,1.9,84.4,3,0.25,13,���k��,8.6,45,,
2016/11/12,12:00:00,15,�k�k��,1.8,3.4,72.9,1,0.4,14,�k��,7.1,2,,
2016/11/12,13:00:00,14,�k��,2.2,4,65.2,0,0.36,13,���k��,4.5,59,,
2016/11/12,14:00:00,13,���k��,2.3,4.5,66.6,0,0.35,13,���k��,4.6,5,,
2016/11/12,15:00:00,12,��,1.4,5.5,63.6,0,0.28,13,���k��,2.8,34,,
2016/11/12,16:00:00,13,���k��,1.5,2.4,67.3,0,0.1,13,���k��,2.1,59,,
2016/11/12,17:00:00,13,���k��,1.7,2.1,83.3,0,0.01,14,�k��,3.6,36,,
2016/11/12,18:00:00,12,��,2.5,-1.3,89,0,0,12,��,3.2,0,,
2016/11/12,19:00:00,13,���k��,1.9,-1.2,92.6,0,0,13,���k��,3.3,1,,
2016/11/12,20:00:00,13,���k��,1.6,-3.8,94.6,0,0,12,��,3.1,39,,
2016/11/12,21:00:00,14,�k��,1.4,-3,95,0,0,12,��,3.1,48,,
2016/11/12,22:00:00,13,���k��,2,-3,96.6,0,0,13,���k��,2.8,57,,
2016/11/12,23:00:00,12,��,0.8,-2,97.4,0,0,12,��,2.9,31,,
2016/11/12,0:00:00,13,���k��,1.6,-4,97.7,0,0,13,���k��,2.7,42,,
2016/11/13,1:00:00,12,��,2.3,-3.4,97.9,0,0,12,��,3.2,30,,
2016/11/13,2:00:00,13,���k��,2.2,-3.4,97.9,0,0,13,���k��,3.5,59,,
2016/11/13,3:00:00,13,���k��,1.7,-3.1,98.1,0,0,13,���k��,3.9,0,,
2016/11/13,4:00:00,12,��,1.8,-3.1,97.8,0,0,13,���k��,3.7,7,,
2016/11/13,5:00:00,16,�k,1,-3.5,97.6,0,0,13,���k��,4.5,48,,
2016/11/13,6:00:00,13,���k��,0.5,-3.4,97.4,0,0,12,��,4.7,17,,
2016/11/13,7:00:00,13,���k��,1.9,-2.3,98,0,0.02,12,��,2.5,59,,
2016/11/13,8:00:00,12,��,1.1,-0.3,98.2,0,0.18,13,���k��,3.5,6,,
2016/11/13,9:00:00,16,�É�,0,1.7,79.3,0,0.31,12,��,3,17,,
2016/11/13,10:00:00,11,���쐼,0.8,2.8,83,0,0.17,12,��,3.2,13,,
2016/11/13,11:00:00,2,�k��,1.1,7,83.1,0.5,0.34,1,�k�k��,2.6,35,,
2016/11/13,12:00:00,11,���쐼,2.2,5.3,69,0,0.21,8,��,5.2,32,,
2016/11/13,13:00:00,13,���k��,2.8,5.2,76.7,0,0.21,14,�k��,6.5,11,,
2016/11/13,14:00:00,13,���k��,2.5,5.1,79.4,0,0.14,13,���k��,4.7,11,,
2016/11/13,15:00:00,12,��,2.4,5.6,74.4,0,0.21,13,���k��,5,13,,
2016/11/13,16:00:00,11,���쐼,2.4,4.8,79.9,0,0.05,9,��쐼,6,34,,
2016/11/13,17:00:00,15,�k�k��,2,3,85.8,0,0.01,12,��,5,5,,
2016/11/13,18:00:00,13,���k��,2.9,3.4,85.4,0,0,13,���k��,4.9,40,,
2016/11/13,19:00:00,9,��쐼,1,0.2,86.3,0,0,12,��,4.4,7,,
2016/11/13,20:00:00,13,���k��,2.4,2.5,89.8,0,0,12,��,4.9,37,,
2016/11/13,21:00:00,13,���k��,2.2,2.3,88.7,0,0,13,���k��,4.1,52,,
2016/11/13,22:00:00,14,�k��,2.7,4,78.5,0,0,14,�k��,5.7,34,,
2016/11/13,23:00:00,10,�쐼,0.5,-0.1,77.2,0,0,14,�k��,4.5,1,,
2016/11/13,0:00:00,9,��쐼,0.5,-1.6,85.3,0,0,8,��,19.1,54,,
2016/11/14,1:00:00,11,���쐼,0.9,-3.7,86.9,0,0,10,�쐼,1.9,43,,
2016/11/14,2:00:00,11,���쐼,1.5,-4.3,90.5,0,0,11,���쐼,2.2,50,,
2016/11/14,3:00:00,12,��,1.1,-3.2,94.9,0,0,12,��,2.5,33,,
2016/11/14,4:00:00,13,���k��,2.2,-4,96.2,0,0,13,���k��,3,54,,
2016/11/14,5:00:00,13,���k��,2.2,-3.6,97.1,0,0,12,��,3.6,54,,
2016/11/14,6:00:00,14,�k��,3,-1.6,97.6,0,0,14,�k��,4.4,57,,
2016/11/14,7:00:00,12,��,1.9,-2.9,95.9,0,0.04,14,�k��,3.7,0,,
2016/11/14,8:00:00,13,���k��,1.1,-1.3,89.8,0,0.18,13,���k��,2.2,2,,
2016/11/14,9:00:00,13,���k��,0.7,2,67.9,0,0.34,12,��,1.7,29,,
2016/11/14,10:00:00,2,�k��,1.5,6,48.2,0,0.47,3,���k��,2.5,49,,
2016/11/14,11:00:00,5,���쓌,1.5,6.9,42,0,0.54,6,�쓌,3.4,49,,
2016/11/14,12:00:00,6,�쓌,1.9,7.3,47.4,0,0.55,5,���쓌,3.8,59,,
2016/11/14,13:00:00,5,���쓌,1.7,8,52.8,0,0.48,6,�쓌,2.9,55,,
2016/11/14,14:00:00,4,��,1.6,8.3,64,0,0.37,5,���쓌,3.6,37,,
2016/11/14,15:00:00,7,��쓌,0.5,7.6,55.4,0,0.2,6,�쓌,2.7,2,,
2016/11/14,16:00:00,16,�É�,0.2,4.4,65.6,0,0.05,9,��쐼,2.3,35,,
2016/11/14,17:00:00,11,���쐼,0.5,1.4,73.9,0,0,9,��쐼,2.1,34,,
2016/11/14,18:00:00,16,�É�,0,0.1,79.8,0,0,12,��,0.8,5,,
2016/11/14,19:00:00,14,�k��,0.5,1,89.3,0,0,12,��,2.5,33,,
2016/11/14,20:00:00,12,��,1.8,1.9,89.8,0,0,13,���k��,3,54,,
2016/11/14,21:00:00,13,���k��,2.1,2.6,86.8,0,0,1,�k�k��,4,38,,
2016/11/14,22:00:00,13,���k��,2.3,2.9,82.7,0,0,13,���k��,5.3,30,,
2016/11/14,23:00:00,14,�k��,3.6,3,80,0,0,13,���k��,6.2,59,,
2016/11/14,0:00:00,13,���k��,2.7,2.7,80.4,0,0,13,���k��,6.3,6,,
2016/11/15,1:00:00,14,�k��,2.1,2.3,81,0,0,14,�k��,5.9,38,,
2016/11/15,2:00:00,15,�k�k��,2.4,2.3,82.5,0,0,14,�k��,7.6,13,,
2016/11/15,3:00:00,15,�k�k��,0.5,-0.4,83.4,0,0,12,��,4.5,16,,
2016/11/15,4:00:00,12,��,2,-0.4,90.1,0,0,11,���쐼,3.9,32,,
2016/11/15,5:00:00,13,���k��,0.9,-0.7,91.1,0,0,11,���쐼,4.6,9,,
2016/11/15,6:00:00,13,���k��,1.5,1.3,94.8,0,0,14,�k��,4.7,49,,
2016/11/15,7:00:00,14,�k��,1.2,2.2,95.9,0,0.01,14,�k��,7.4,4,,
2016/11/15,8:00:00,12,��,2.2,3.7,96.2,1,0.02,13,���k��,3.8,33,,
2016/11/15,9:00:00,16,�É�,0,5.1,96.5,1,0.04,14,�k��,2.7,13,,
2016/11/15,10:00:00,12,��,1.3,7.2,96.5,0,0.16,13,���k��,3.9,45,,
2016/11/15,11:00:00,14,�k��,2.5,9.3,91.8,0,0.27,14,�k��,7.4,36,,
2016/11/15,12:00:00,12,��,0.9,13.2,63.6,0,0.54,4,��,3.6,12,,
2016/11/15,13:00:00,16,�k,2.4,11.6,68.2,0,0.5,14,�k��,5.2,15,,
2016/11/15,14:00:00,13,���k��,2.5,11.9,62.9,0,0.4,2,�k��,7.3,36,,
2016/11/15,15:00:00,14,�k��,5.6,9,58.9,0,0.23,14,�k��,10.4,53,,
2016/11/15,16:00:00,14,�k��,3.6,7.2,63.6,0,0.05,14,�k��,9,2,,
2016/11/15,17:00:00,13,���k��,2.4,4.9,63.8,0,0,15,�k�k��,6.9,4,,
2016/11/15,18:00:00,11,���쐼,1.2,0.8,68.5,0,0,13,���k��,4.2,2,,
2016/11/15,19:00:00,12,��,1.5,0.9,74.8,0,0,13,���k��,2.3,55,,
2016/11/15,20:00:00,14,�k��,2.9,3.9,66.7,0,0,14,�k��,6.6,42,,
2016/11/15,21:00:00,14,�k��,2.3,3.2,55.5,0,0,14,�k��,6.7,31,,
2016/11/15,22:00:00,13,���k��,2.1,1.1,57.7,0,0,12,��,4.7,26,,
2016/11/15,23:00:00,14,�k��,2.1,1,66.7,0,0,14,�k��,5.1,11,,
2016/11/15,0:00:00,15,�k�k��,1.7,0.6,69.6,0,0,14,�k��,3.9,17,,
2016/11/16,1:00:00,16,�É�,0.1,-1.1,71.6,0,0,14,�k��,4,4,,
2016/11/16,2:00:00,12,��,1.5,-4.6,78,0,0,12,��,2.1,47,,
2016/11/16,3:00:00,13,���k��,2.4,-4.4,86.9,0,0,13,���k��,3.4,45,,
2016/11/16,4:00:00,12,��,2,-5.5,89.6,0,0,12,��,3.2,11,,
2016/11/16,5:00:00,12,��,1.1,-6.8,88.3,0,0,13,���k��,2.4,9,,
2016/11/16,6:00:00,15,�k�k��,0.8,-4.9,92.1,0,0,12,��,3.4,25,,
2016/11/16,7:00:00,13,���k��,2.3,-3.6,92.6,0,0.04,2,�k��,4.4,17,,
2016/11/16,8:00:00,16,�k,1.6,1.7,64.9,0,0.2,14,�k��,3.1,51,,
2016/11/16,9:00:00,15,�k�k��,1.8,3.2,40.2,0,0.37,2,�k��,4.9,13,,
2016/11/16,10:00:00,14,�k��,2,3.8,32.5,0,0.5,15,�k�k��,4,4,,
2016/11/16,11:00:00,15,�k�k��,2.6,3.9,37.3,0,0.4,15,�k�k��,5.3,11,,
2016/11/16,12:00:00,11,���쐼,2.9,4.1,32,0,0.59,12,��,6.3,51,,
2016/11/16,13:00:00,13,���k��,4,4.2,29.9,0,0.5,1,�k�k��,6.9,51,,
2016/11/16,14:00:00,12,��,4.2,4.1,31.9,0,0.43,12,��,7.3,45,,
2016/11/16,15:00:00,16,�k,2.2,3.6,30.7,0,0.27,12,��,6.9,10,,
2016/11/16,16:00:00,16,�É�,0,1.1,40.7,0,0.07,1,�k�k��,4.9,4,,
2016/11/16,17:00:00,15,�k�k��,1.3,-1.1,53.2,0,0,15,�k�k��,2.3,53,,
2016/11/16,18:00:00,16,�É�,0,-4,62.8,0,0,3,���k��,2.3,23,,